When you browse on this site, cookies collect data to enhance your experience and personalize the content and advertising you see.
Visit our Privacy Policy to learn more. By continuing to use the site, you agree to this use of cookies and data.

Stündliche Wetter Bolshie Lopatki

Heute, 27 September, Sonntag

Zeit Temperatur Niederschläge Wind Luftdruck Luftfeuchtigkeit
00:00 +13°C° 0 mm 3 m/S 744 mmHg 66%
01:00 +13°C° 0 mm 3 m/S 744 mmHg 66%
02:00 +12°C° 0 mm 3 m/S 744 mmHg 66%
03:00 +12°C° 0 mm 3 m/S 745 mmHg 66%
04:00 +12°C° 0 mm 3 m/S 745 mmHg 66%
05:00 +12°C° 0 mm 4 m/S 745 mmHg 65%
06:00 +13°C° 0 mm 4 m/S 745 mmHg 61%
07:00 +13°C° 0 mm 4 m/S 745 mmHg 57%
08:00 +14°C° 0 mm 5 m/S 746 mmHg 51%
09:00 +15°C° 0 mm 5 m/S 746 mmHg 50%
10:00 +16°C° 0 mm 5 m/S 746 mmHg 49%
11:00 +16°C° 0 mm 5 m/S 746 mmHg 47%
12:00 +17°C° 0 mm 5 m/S 746 mmHg 48%
13:00 +17°C° 0 mm 6 m/S 746 mmHg 49%
14:00 +17°C° 0 mm 6 m/S 746 mmHg 49%
15:00 +16°C° 0 mm 5 m/S 746 mmHg 52%
16:00 +15°C° 0 mm 5 m/S 746 mmHg 55%
17:00 +14°C° 0 mm 4 m/S 746 mmHg 57%
18:00 +14°C° 0 mm 4 m/S 746 mmHg 57%
19:00 +14°C° 0 mm 4 m/S 746 mmHg 57%
20:00 +13°C° 0 mm 4 m/S 746 mmHg 56%
21:00 +13°C° 0 mm 4 m/S 746 mmHg 57%
22:00 +13°C° 0 mm 4 m/S 746 mmHg 57%
23:00 +13°C° 0 mm 4 m/S 746 mmHg 58%

Morgen, 28 September, Montag

Zeit Temperatur Niederschläge Wind Luftdruck Luftfeuchtigkeit
00:00 +13°C° 0 mm 4 m/S 746 mmHg 55%
01:00 +13°C° 0 mm 4 m/S 746 mmHg 52%
02:00 +13°C° 0 mm 4 m/S 746 mmHg 49%
03:00 +12°C° 0.9 mm 4 m/S 745 mmHg 57%
04:00 +11°C° 0.9 mm 4 m/S 745 mmHg 66%
05:00 +11°C° 0.9 mm 4 m/S 745 mmHg 74%
06:00 +11°C° 0.8 mm 4 m/S 745 mmHg 79%
07:00 +11°C° 0.8 mm 4 m/S 745 mmHg 85%
08:00 +11°C° 0.8 mm 4 m/S 746 mmHg 90%
09:00 +12°C° 0 mm 5 m/S 746 mmHg 85%
10:00 +13°C° 0 mm 5 m/S 746 mmHg 80%
11:00 +14°C° 0 mm 5 m/S 746 mmHg 75%
12:00 +14°C° 0 mm 4 m/S 746 mmHg 76%
13:00 +14°C° 0 mm 4 m/S 746 mmHg 76%
14:00 +16°C° 0 mm 3 m/S 746 mmHg 77%
15:00 +14°C° 0.2 mm 3 m/S 747 mmHg 80%
16:00 +14°C° 0.2 mm 2 m/S 747 mmHg 83%
17:00 +14°C° 0.2 mm 2 m/S 747 mmHg 86%
18:00 +13°C° 0 mm 2 m/S 747 mmHg 87%
19:00 +13°C° 0 mm 2 m/S 747 mmHg 89%
20:00 +12°C° 0 mm 2 m/S 747 mmHg 90%
21:00 +12°C° 0 mm 2 m/S 748 mmHg 91%
22:00 +11°C° 0 mm 1 m/S 748 mmHg 92%
23:00 +11°C° 0 mm 1 m/S 748 mmHg 93%

übermorgen, 29 September, Dienstag

Zeit Temperatur Niederschläge Wind Luftdruck Luftfeuchtigkeit
00:00 +11°C° 0 mm 1 m/S 748 mmHg 93%
01:00 +10°C° 0 mm 1 m/S 748 mmHg 94%
02:00 +10°C° 0 mm 1 m/S 748 mmHg 94%
03:00 +10°C° 0 mm 1 m/S 748 mmHg 94%
04:00 +10°C° 0 mm 1 m/S 748 mmHg 95%
05:00 +10°C° 0 mm 1 m/S 747 mmHg 95%
06:00 +10°C° 0 mm 2 m/S 747 mmHg 92%
07:00 +12°C° 0 mm 2 m/S 747 mmHg 89%
08:00 +13°C° 0 mm 2 m/S 748 mmHg 85%
09:00 +14°C° 0 mm 2 m/S 747 mmHg 78%
10:00 +14°C° 0 mm 3 m/S 747 mmHg 70%
11:00 +16°C° 0 mm 3 m/S 747 mmHg 63%
12:00 +17°C° 0 mm 3 m/S 747 mmHg 61%
13:00 +17°C° 0 mm 3 m/S 747 mmHg 60%
14:00 +17°C° 0 mm 4 m/S 747 mmHg 59%
15:00 +16°C° 0 mm 3 m/S 746 mmHg 61%
16:00 +14°C° 0 mm 3 m/S 746 mmHg 64%
17:00 +13°C° 0 mm 3 m/S 746 mmHg 66%
18:00 +13°C° 0 mm 3 m/S 746 mmHg 64%
19:00 +13°C° 0 mm 3 m/S 746 mmHg 62%
20:00 +12°C° 0 mm 3 m/S 746 mmHg 59%
21:00 +12°C° 0 mm 3 m/S 746 mmHg 60%
22:00 +11°C° 0 mm 3 m/S 746 mmHg 60%
23:00 +11°C° 0 mm 3 m/S 746 mmHg 60%

30 September, Mittwoch

Zeit Temperatur Niederschläge Wind Luftdruck Luftfeuchtigkeit
00:00 +10°C° 0 mm 3 m/S 745 mmHg 61%
01:00 +10°C° 0 mm 3 m/S 745 mmHg 62%
02:00 +9°C° 0 mm 3 m/S 745 mmHg 63%
03:00 +9°C° 0 mm 3 m/S 745 mmHg 62%
04:00 +9°C° 0 mm 3 m/S 745 mmHg 61%
05:00 +10°C° 0 mm 3 m/S 745 mmHg 59%
06:00 +10°C° 0 mm 3 m/S 745 mmHg 58%
07:00 +10°C° 0 mm 3 m/S 745 mmHg 57%
08:00 +10°C° 0 mm 4 m/S 745 mmHg 56%
09:00 +12°C° 0 mm 4 m/S 745 mmHg 54%
10:00 +13°C° 0 mm 4 m/S 745 mmHg 52%
11:00 +14°C° 0 mm 4 m/S 745 mmHg 49%
12:00 +15°C° 0 mm 5 m/S 745 mmHg 49%
13:00 +16°C° 0 mm 5 m/S 745 mmHg 48%
14:00 +16°C° 0 mm 5 m/S 745 mmHg 48%
15:00 +15°C° 0 mm 4 m/S 745 mmHg 51%
16:00 +14°C° 0 mm 4 m/S 745 mmHg 54%
17:00 +13°C° 0 mm 3 m/S 744 mmHg 57%
18:00 +12°C° 0 mm 3 m/S 745 mmHg 58%
19:00 +11°C° 0 mm 3 m/S 745 mmHg 59%
20:00 +11°C° 0 mm 4 m/S 745 mmHg 60%
21:00 +10°C° 0 mm 3 m/S 745 mmHg 60%
22:00 +10°C° 0 mm 3 m/S 745 mmHg 61%
23:00 +9°C° 0 mm 3 m/S 745 mmHg 62%

1 Oktober, Donnerstag

Zeit Temperatur Niederschläge Wind Luftdruck Luftfeuchtigkeit
00:00 +9°C° 0 mm 3 m/S 745 mmHg 64%
01:00 +9°C° 0 mm 3 m/S 745 mmHg 65%
02:00 +9°C° 0 mm 3 m/S 745 mmHg 67%
03:00 +9°C° 0 mm 3 m/S 745 mmHg 67%
04:00 +9°C° 0 mm 3 m/S 745 mmHg 67%
05:00 +8°C° 0 mm 4 m/S 745 mmHg 67%
06:00 +10°C° 0 mm 4 m/S 745 mmHg 65%
07:00 +11°C° 0 mm 4 m/S 745 mmHg 63%
08:00 +11°C° 0 mm 4 m/S 745 mmHg 60%
09:00 +13°C° 0 mm 5 m/S 745 mmHg 57%
10:00 +14°C° 0 mm 5 m/S 745 mmHg 53%
11:00 +15°C° 0 mm 5 m/S 745 mmHg 49%
12:00 +15°C° 0 mm 5 m/S 745 mmHg 50%
13:00 +16°C° 0 mm 5 m/S 745 mmHg 50%
14:00 +16°C° 0 mm 5 m/S 745 mmHg 50%
15:00 +15°C° 0 mm 4 m/S 745 mmHg 54%
16:00 +14°C° 0 mm 4 m/S 745 mmHg 57%
17:00 +13°C° 0 mm 3 m/S 745 mmHg 61%
18:00 +13°C° 0 mm 3 m/S 745 mmHg 60%
19:00 +13°C° 0 mm 3 m/S 745 mmHg 58%
20:00 +12°C° 0 mm 4 m/S 745 mmHg 57%
21:00 +12°C° 0 mm 3 m/S 745 mmHg 58%
22:00 +12°C° 0 mm 3 m/S 745 mmHg 59%
23:00 +11°C° 0 mm 3 m/S 745 mmHg 60%

2 Oktober, Freitag

Zeit Temperatur Niederschläge Wind Luftdruck Luftfeuchtigkeit
00:00 +11°C° 0 mm 3 m/S 745 mmHg 61%
01:00 +11°C° 0 mm 3 m/S 745 mmHg 61%
02:00 +11°C° 0 mm 3 m/S 745 mmHg 61%
03:00 +11°C° 0 mm 3 m/S 745 mmHg 62%
04:00 +11°C° 0 mm 4 m/S 745 mmHg 62%
05:00 +11°C° 0 mm 4 m/S 745 mmHg 62%
06:00 +11°C° 0 mm 4 m/S 746 mmHg 62%
07:00 +11°C° 0 mm 4 m/S 746 mmHg 61%
08:00 +12°C° 0 mm 4 m/S 746 mmHg 61%
09:00 +13°C° 0 mm 4 m/S 746 mmHg 58%
10:00 +14°C° 0 mm 4 m/S 746 mmHg 56%
11:00 +15°C° 0 mm 5 m/S 746 mmHg 53%
12:00 +16°C° 0 mm 5 m/S 746 mmHg 53%
13:00 +16°C° 0 mm 5 m/S 746 mmHg 53%
14:00 +17°C° 0 mm 5 m/S 746 mmHg 52%
15:00 +17°C° 0 mm 4 m/S 746 mmHg 57%
16:00 +15°C° 0 mm 4 m/S 746 mmHg 62%
17:00 +14°C° 0 mm 3 m/S 746 mmHg 67%
18:00 +13°C° 0 mm 3 m/S 747 mmHg 68%
19:00 +13°C° 0 mm 3 m/S 747 mmHg 69%
20:00 +13°C° 0 mm 3 m/S 747 mmHg 70%
21:00 +13°C° 0 mm 3 m/S 747 mmHg 70%
22:00 +13°C° 0 mm 3 m/S 747 mmHg 70%
23:00 +12°C° 0 mm 3 m/S 747 mmHg 70%
Mehr zeigen